Location: Vihti�l�
(61.3833°N, 23.0667°E)
Time: 04:15:42
(UTC+00:00)

ATLAS 2AS CENTAUR R/B - Pass Details

Date: 29 November 2020
Orbit: 943 x 1268 km, 63.7° (Epoch: 21 January)

Event Time Altitude Azimuth Distance (km) Brightness Sun altitude
Rises 04:15:52 0° 223° (SW) 4,221 5.5 -18.8°
Reaches altitude 10° 04:18:41 10° 221° (SW) 3,258 4.9 -18.5°
Maximum altitude 04:26:31 66° 141° (SE) 1,357 3.4 -17.6°
Drops below altitude 10° 04:34:07 10° 62° (ENE) 3,162 5.8 -16.7°
Sets 04:36:49 0° 60° (ENE) 4,090 6.5 -16.4°
